GLOBALSTAR M079

Last updated on Sun Jun 21 2026 00:03:18 GMT+0000 (Coordinated Universal Time)

1 37188U 10054A 26170.99097171 -.00000091 00000+0 71096-4 0 9993 2 37188 52.0037 100.1341 0000779 30.9958 48.7777 12.62266104722903
UTC large
Height (km)
Speed (km/s)
/
Latitude / Longitude
Inclination (degrees)
Orbital Period (minutes)
Azimuth
Elevation
Range (km)
Doppler Factor

Next 0 passes for location: London (51.5072 / 0.1276)

No passes found over London.
GLOBALSTAR M079